TimeCDT,TemperatureF,Dew PointF,Humidity,Sea Level PressureIn,VisibilityMPH,Wind Direction,Wind SpeedMPH,Gust SpeedMPH,PrecipitationIn,Events,Conditions,WindDirDegrees,DateUTC
12:15 AM,32.0,30.2,93,29.53,10.0,WNW,18.4,26.5,N/A,Snow,Light Snow,290,2013-04-19 05:15:00
12:35 AM,32.0,28.4,87,29.53,10.0,WNW,20.7,-,N/A,Rain,Light Rain,290,2013-04-19 05:35:00
12:55 AM,32.0,30.2,93,29.52,7.0,WNW,18.4,24.2,N/A,Rain,Light Rain,290,2013-04-19 05:55:00
1:15 AM,32.0,30.2,93,29.52,10.0,WNW,19.6,-,N/A,Rain,Light Rain,290,2013-04-19 06:15:00
1:35 AM,32.0,28.4,87,29.52,10.0,WNW,18.4,26.5,N/A,,Overcast,300,2013-04-19 06:35:00
1:55 AM,32.0,28.4,87,29.52,10.0,WNW,20.7,-,N/A,,Overcast,290,2013-04-19 06:55:00
2:15 AM,32.0,28.4,87,29.52,10.0,WNW,21.9,28.8,N/A,Snow,Light Snow,300,2013-04-19 07:15:00
2:35 AM,32.0,28.4,87,29.51,10.0,WNW,17.3,26.5,N/A,,Overcast,290,2013-04-19 07:35:00
2:55 AM,32.0,28.4,87,29.51,10.0,WNW,18.4,26.5,N/A,,Overcast,290,2013-04-19 07:55:00
3:15 AM,32.0,28.4,87,29.51,10.0,WNW,20.7,27.6,N/A,,Overcast,290,2013-04-19 08:15:00
3:35 AM,32.0,28.4,87,29.51,10.0,WNW,23.0,29.9,N/A,,Overcast,290,2013-04-19 08:35:00
3:55 AM,32.0,28.4,87,29.51,10.0,WNW,24.2,31.1,N/A,Rain,Light Rain,300,2013-04-19 08:55:00
4:15 AM,32.0,28.4,87,29.52,10.0,WNW,18.4,28.8,N/A,,Overcast,290,2013-04-19 09:15:00
4:35 AM,32.0,28.4,87,29.52,10.0,WNW,18.4,29.9,N/A,Rain,Light Rain,300,2013-04-19 09:35:00
4:55 AM,32.0,28.4,87,29.52,9.0,WNW,20.7,27.6,N/A,,Overcast,290,2013-04-19 09:55:00
5:15 AM,32.0,28.4,87,29.53,8.0,WNW,21.9,28.8,N/A,Rain,Light Rain,290,2013-04-19 10:15:00
5:35 AM,32.0,28.4,87,29.53,8.0,WNW,20.7,27.6,N/A,Snow,Light Snow,290,2013-04-19 10:35:00
5:55 AM,32.0,28.4,87,29.53,10.0,WNW,21.9,28.8,N/A,Rain,Light Rain,300,2013-04-19 10:55:00
6:15 AM,32.0,28.4,87,29.54,10.0,WNW,21.9,31.1,N/A,Snow,Light Snow,300,2013-04-19 11:15:00
6:35 AM,32.0,28.4,87,29.55,7.0,WNW,19.6,27.6,N/A,Snow,Light Snow,290,2013-04-19 11:35:00
6:55 AM,32.0,28.4,87,29.56,9.0,WNW,19.6,26.5,N/A,Snow,Light Snow,290,2013-04-19 11:55:00
7:15 AM,32.0,28.4,87,29.56,10.0,WNW,18.4,29.9,N/A,,Overcast,300,2013-04-19 12:15:00
7:35 AM,32.0,28.4,87,29.57,10.0,WNW,23.0,-,N/A,,Overcast,300,2013-04-19 12:35:00
7:55 AM,32.0,28.4,87,29.58,10.0,WNW,21.9,28.8,N/A,Rain,Light Rain,300,2013-04-19 12:55:00
8:15 AM,32.0,28.4,87,29.58,10.0,WNW,18.4,26.5,N/A,Rain,Light Rain,290,2013-04-19 13:15:00
8:35 AM,32.0,26.6,80,29.59,10.0,WNW,23.0,32.2,N/A,,Overcast,290,2013-04-19 13:35:00
8:55 AM,32.0,26.6,80,29.59,10.0,WNW,24.2,-,N/A,Rain,Light Rain,290,2013-04-19 13:55:00
9:35 AM,32.0,26.6,80,29.61,10.0,WNW,20.7,32.2,N/A,Rain,Light Rain,290,2013-04-19 14:35:00
9:55 AM,32.0,26.6,80,29.62,10.0,WNW,25.3,31.1,N/A,Rain,Light Rain,300,2013-04-19 14:55:00
10:15 AM,32.0,26.6,80,29.62,10.0,WNW,26.5,-,N/A,,Overcast,300,2013-04-19 15:15:00
10:35 AM,32.0,26.6,80,29.64,10.0,WNW,25.3,33.4,N/A,,Overcast,300,2013-04-19 15:35:00
10:55 AM,32.0,26.6,80,29.65,10.0,WNW,23.0,29.9,N/A,,Overcast,300,2013-04-19 15:55:00
11:15 AM,33.8,28.4,81,29.65,10.0,WNW,17.3,29.9,N/A,,Overcast,300,2013-04-19 16:15:00
11:35 AM,33.8,28.4,81,29.66,10.0,WNW,27.6,-,N/A,Rain,Light Rain,290,2013-04-19 16:35:00
11:55 AM,33.8,26.6,75,29.67,10.0,WNW,23.0,35.7,N/A,Rain,Light Rain,300,2013-04-19 16:55:00
12:15 PM,33.8,28.4,81,29.68,10.0,WNW,25.3,32.2,N/A,,Overcast,300,2013-04-19 17:15:00
12:35 PM,33.8,26.6,75,29.69,10.0,WNW,25.3,36.8,N/A,,Overcast,300,2013-04-19 17:35:00
12:55 PM,33.8,26.6,75,29.69,10.0,WNW,25.3,36.8,N/A,,Overcast,300,2013-04-19 17:55:00
1:15 PM,33.8,26.6,75,29.70,10.0,WNW,23.0,33.4,N/A,,Overcast,300,2013-04-19 18:15:00
1:35 PM,33.8,26.6,75,29.71,10.0,WNW,25.3,33.4,N/A,,Overcast,300,2013-04-19 18:35:00
2:15 PM,33.8,26.6,75,29.73,10.0,NW,23.0,31.1,N/A,,Overcast,310,2013-04-19 19:15:00
2:35 PM,33.8,26.6,75,29.74,10.0,NW,23.0,32.2,N/A,,Overcast,310,2013-04-19 19:35:00
2:55 PM,33.8,24.8,70,29.75,10.0,WNW,24.2,34.5,N/A,,Overcast,300,2013-04-19 19:55:00
3:15 PM,33.8,24.8,70,29.76,10.0,WNW,25.3,33.4,N/A,,Overcast,300,2013-04-19 20:15:00
3:35 PM,33.8,24.8,70,29.76,10.0,NW,24.2,34.5,N/A,,Overcast,310,2013-04-19 20:35:00
3:55 PM,33.8,26.6,75,29.77,10.0,NW,20.7,32.2,N/A,,Overcast,310,2013-04-19 20:55:00
4:15 PM,35.6,26.6,70,29.78,10.0,WNW,20.7,26.5,N/A,,Overcast,300,2013-04-19 21:15:00
4:35 PM,33.8,26.6,75,29.79,10.0,WNW,26.5,34.5,N/A,,Overcast,300,2013-04-19 21:35:00
4:55 PM,33.8,26.6,75,29.81,10.0,WNW,21.9,29.9,N/A,,Overcast,300,2013-04-19 21:55:00
5:15 PM,35.6,26.6,70,29.82,10.0,WNW,21.9,28.8,N/A,,Overcast,300,2013-04-19 22:15:00
5:35 PM,33.8,26.6,75,29.83,10.0,NW,26.5,33.4,N/A,Rain,Light Rain,310,2013-04-19 22:35:00
5:55 PM,35.6,26.6,70,29.84,10.0,WNW,16.1,24.2,N/A,,Mostly Cloudy,300,2013-04-19 22:55:00
6:15 PM,33.8,26.6,75,29.85,10.0,WNW,20.7,29.9,N/A,,Overcast,300,2013-04-19 23:15:00
6:35 PM,33.8,26.6,75,29.86,10.0,WNW,23.0,29.9,N/A,,Overcast,300,2013-04-19 23:35:00
6:55 PM,35.6,26.6,70,29.87,10.0,WNW,20.7,28.8,N/A,,Mostly Cloudy,300,2013-04-19 23:55:00
7:15 PM,35.6,26.6,70,29.88,10.0,WNW,16.1,26.5,N/A,,Mostly Cloudy,300,2013-04-20 00:15:00
7:35 PM,33.8,26.6,75,29.89,10.0,WNW,20.7,31.1,N/A,,Overcast,300,2013-04-20 00:35:00
7:55 PM,33.8,26.6,75,29.90,10.0,WNW,17.3,-,N/A,,Overcast,300,2013-04-20 00:55:00
8:15 PM,33.8,26.6,75,29.91,10.0,WNW,16.1,-,N/A,,Overcast,300,2013-04-20 01:15:00
8:35 PM,33.8,26.6,75,29.93,10.0,WNW,16.1,24.2,N/A,,Overcast,300,2013-04-20 01:35:00
8:55 PM,33.8,26.6,75,29.94,10.0,WNW,17.3,24.2,N/A,,Overcast,300,2013-04-20 01:55:00
9:15 PM,32.0,26.6,80,29.95,10.0,WNW,15.0,21.9,N/A,,Scattered Clouds,290,2013-04-20 02:15:00
9:35 PM,32.0,26.6,80,29.96,10.0,WNW,15.0,-,N/A,,Clear,300,2013-04-20 02:35:00
9:55 PM,32.0,26.6,80,29.97,10.0,WNW,16.1,-,N/A,,Clear,300,2013-04-20 02:55:00
10:15 PM,32.0,26.6,80,29.98,10.0,WNW,16.1,-,N/A,,Clear,290,2013-04-20 03:15:00
10:35 PM,32.0,26.6,80,29.98,10.0,WNW,12.7,-,N/A,,Clear,290,2013-04-20 03:35:00
10:55 PM,30.2,26.6,86,29.98,10.0,WNW,11.5,-,N/A,,Clear,290,2013-04-20 03:55:00
11:15 PM,30.2,26.6,86,29.99,10.0,WNW,12.7,-,N/A,,Clear,290,2013-04-20 04:15:00
11:35 PM,30.2,26.6,86,29.99,10.0,WNW,11.5,-,N/A,,Clear,290,2013-04-20 04:35:00
11:55 PM,30.2,26.6,86,30.00,10.0,WNW,12.7,-,N/A,,Clear,290,2013-04-20 04:55:00